Starlink 34216

operational
NORAD ID: 64337 Int'l Des: 2025-124 Owner: SPXS Country: US Constellation: starlink
LEOCIRCULAR

关于 Starlink 34216

正在加载描述...

实时位置

正在加载3D地球...

即将过境

高度历史

Altitude vs Time

uPlot chart will show altitude changes over time

两行轨道根数

1 64337U 25124W 26095.36179692 .00002556 00000-0 10230-3 0 9999
2 64337 43.0010 330.7259 0000533 238.3267 121.7533 15.27601628 45867
Epoch: Apr 5, 2026 • Age: 13 hours

当前状态

高度 483.8 km
速度 7.62 km/s
星下点 -5.86°S, 169.31°E
发射日期 Jun 10, 2025
运行时间 0.8 years
类型 internet

技术详情

分类 Payload
质量 575.00 kg
干质量 530.00 kg
总质量 575.00 kg
长度 0.30 m
直径 4.10 m
跨度 29.00 m
形状 Box + pan
制造商 SPXS
平台类型 Starlink V2MO
阶段状态 In Orbit
所有者/国家 SPXS/US

大型星座

Loading constellations...